,,Stat1,,Stat2,,Stat3,,Stat4,,Wind1,,Wind1
time,status,PR1M_SUM,status,RH1M_AVG,status,SR1M_AVG,status,TA1M_AVG,status,W1dAve1m,status,W1sAve1m
1999-12-15, 00:00:01,VALID,0,VALID,98.7897,VALID,0.0169808,VALID,16.6293,VALID,179,VALID,0
1999-12-15, 00:01:01,VALID,0,VALID,98.7986,VALID,0.0169808,VALID,16.6226,VALID,180,VALID,0
1999-12-15, 00:02:00,VALID,0,VALID,98.7795,VALID,-0.0339617,VALID,16.6164,VALID,197,VALID,0
1999-12-15, 00:03:00,VALID,0,VALID,98.5494,VALID,0,VALID,16.5942,VALID,202,VALID,0
1999-12-15, 00:04:00,VALID,0,VALID,98.1793,VALID,0,VALID,16.5386,VALID,202,VALID,0
1999-12-15, 00:05:00,VALID,0,VALID,98.4336,VALID,0.0169808,VALID,16.5423,VALID,186,VALID,0
1999-12-15, 00:06:00,VALID,0,VALID,98.3802,VALID,0,VALID,16.5326,VALID,170,VALID,0
1999-12-15, 00:07:00,VALID,0,VALID,98.1704,VALID,0,VALID,16.4611,VALID,166,VALID,0
1999-12-15, 00:08:00,VALID,0,VALID,98.0547,VALID,0,VALID,16.3931,VALID,162,VALID,0
1999-12-15, 00:09:00,VALID,0,VALID,98.6638,VALID,0.0169808,VALID,16.4449,VALID,163,VALID,0
1999-12-15, 00:10:00,VALID,0,VALID,98.5583,VALID,-0.0169808,VALID,16.4288,VALID,167,VALID,0
1999-12-15, 00:11:00,VALID,0,VALID,98.4006,VALID,0,VALID,16.3971,VALID,167,VALID,0
1999-12-15, 00:12:00,VALID,0,VALID,98.1857,VALID,0.0169808,VALID,16.3218,VALID,167,VALID,0
1999-12-15, 00:13:01,VALID,0,VALID,97.5283,VALID,0,VALID,16.2417,VALID,167,VALID,0
1999-12-15, 00:14:00,VALID,0,VALID,96.8556,VALID,0,VALID,16.1609,VALID,167,VALID,0
1999-12-15, 00:15:00,VALID,0,VALID,97.5829,VALID,0.0169808,VALID,16.1643,VALID,167,VALID,0
1999-12-15, 00:16:00,VALID,0,VALID,97.7482,VALID,0.0339617,VALID,16.1219,VALID,167,VALID,0
1999-12-15, 00:17:00,VALID,0,VALID,97.9428,VALID,0.0169808,VALID,16.1189,VALID,167,VALID,0
1999-12-15, 00:18:00,VALID,0,VALID,98.5303,VALID,0.0169808,VALID,16.1641,VALID,170,VALID,0
1999-12-15, 00:19:00,VALID,0,VALID,98.8978,VALID,0,VALID,16.252,VALID,182,VALID,0
1999-12-15, 00:20:00,VALID,0,VALID,98.6714,VALID,0,VALID,16.2259,VALID,199,VALID,0
1999-12-15, 00:21:00,VALID,0,VALID,98.6256,VALID,0,VALID,16.1904,VALID,209,VALID,0
1999-12-15, 00:22:00,VALID,0,VALID,98.6524,VALID,0,VALID,16.1674,VALID,230,VALID,0.3144
1999-12-15, 00:23:00,VALID,0,VALID,98.7859,VALID,0,VALID,16.1902,VALID,212,VALID,0.741386
1999-12-15, 00:24:01,VALID,0,VALID,99.1216,VALID,0,VALID,16.2356,VALID,220,VALID,0.938978
1999-12-15, 00:25:00,VALID,0,VALID,99.4191,VALID,0.0169808,VALID,16.3392,VALID,227,VALID,0.830592
1999-12-15, 00:26:00,VALID,0,VALID,99.5031,VALID,-0.0169808,VALID,16.4068,VALID,224,VALID,0.787623
1999-12-15, 00:27:00,VALID,0,VALID,99.5717,VALID,0,VALID,16.4682,VALID,219,VALID,0.79413
1999-12-15, 00:28:00,VALID,0,VALID,99.7472,VALID,-0.0169808,VALID,16.5461,VALID,205,VALID,0.835136
1999-12-15, 00:29:00,VALID,0,VALID,99.868,VALID,0,VALID,16.6461,VALID,194,VALID,0.576436
1999-12-15, 00:30:00,VALID,0,VALID,99.559,VALID,0.0169808,VALID,16.6008,VALID,165,VALID,0.575041
1999-12-15, 00:31:00,VALID,0,VALID,99.3174,VALID,0,VALID,16.4975,VALID,161,VALID,0.574836
1999-12-15, 00:32:00,VALID,0,VALID,99.4077,VALID,-0.0509425,VALID,16.5168,VALID,160,VALID,0.578742
1999-12-15, 00:33:00,VALID,0,VALID,99.4001,VALID,-0.0509425,VALID,16.5072,VALID,161,VALID,0.647636
1999-12-15, 00:34:01,VALID,0,VALID,99.5081,VALID,-0.0169808,VALID,16.5431,VALID,171,VALID,0.635135
1999-12-15, 00:35:01,VALID,0,VALID,99.3225,VALID,-0.0339617,VALID,16.4878,VALID,169,VALID,0.508224
1999-12-15, 00:36:00,VALID,0,VALID,99.2793,VALID,-0.0169808,VALID,16.4619,VALID,190,VALID,0.457442
1999-12-15, 00:37:00,VALID,0,VALID,99.3288,VALID,-0.0169808,VALID,16.4686,VALID,196,VALID,0.553209
1999-12-15, 00:38:00,VALID,0,VALID,99.3644,VALID,0,VALID,16.4652,VALID,187,VALID,0.676282
1999-12-15, 00:39:00,VALID,0,VALID,99.4242,VALID,-0.0169808,VALID,16.4783,VALID,188,VALID,0.788429
1999-12-15, 00:40:00,VALID,0,VALID,99.3441,VALID,-0.0339617,VALID,16.4585,VALID,190,VALID,0.579359
1999-12-15, 00:41:00,VALID,0,VALID,99.1979,VALID,-0.0169808,VALID,16.4068,VALID,190,VALID,0.61287
1999-12-15, 00:42:00,VALID,0,VALID,99.311,VALID,0,VALID,16.4038,VALID,190,VALID,0.662584
1999-12-15, 00:43:00,VALID,0,VALID,99.5704,VALID,0,VALID,16.452,VALID,190,VALID,0.726162
1999-12-15, 00:44:01,VALID,0,VALID,99.8884,VALID,0,VALID,16.5974,VALID,190,VALID,0.782517
1999-12-15, 00:45:00,VALID,0,VALID,99.8947,VALID,-0.0169808,VALID,16.701,VALID,189,VALID,0.920436
1999-12-15, 00:46:01,VALID,0,VALID,99.7218,VALID,-0.0509425,VALID,16.7305,VALID,171,VALID,0.802837
1999-12-15, 00:47:00,VALID,0,VALID,99.4675,VALID,-0.0509425,VALID,16.698,VALID,163,VALID,0.673564
1999-12-15, 00:48:00,VALID,0,VALID,98.9029,VALID,0,VALID,16.5653,VALID,163,VALID,0.669872
1999-12-15, 00:49:00,VALID,0,VALID,98.8431,VALID,-0.0169808,VALID,16.5069,VALID,164,VALID,0.663007
1999-12-15, 00:50:00,VALID,0,VALID,99.2869,VALID,0,VALID,16.6263,VALID,172,VALID,0.717928
1999-12-15, 00:51:00,VALID,0,VALID,99.2843,VALID,-0.0169808,VALID,16.6687,VALID,171,VALID,0.582854
1999-12-15, 00:52:00,VALID,0,VALID,98.5125,VALID,-0.0679233,VALID,16.5179,VALID,162,VALID,0.532517
1999-12-15, 00:53:00,VALID,0,VALID,98.8215,VALID,-0.0849042,VALID,16.5532,VALID,171,VALID,0.621995
1999-12-15, 00:54:00,VALID,0,VALID,98.5761,VALID,-0.0679233,VALID,16.5342,VALID,171,VALID,0.449324
1999-12-15, 00:55:00,VALID,0,VALID,98.3853,VALID,0,VALID,16.4757,VALID,176,VALID,0.378084
1999-12-15, 00:56:00,VALID,0,VALID,98.515,VALID,-0.0339617,VALID,16.4494,VALID,194,VALID,0.410567
1999-12-15, 00:57:01,VALID,0,VALID,98.3853,VALID,-0.0849042,VALID,16.4048,VALID,202,VALID,0.391892
1999-12-15, 00:58:00,VALID,0,VALID,98.1539,VALID,-0.0849042,VALID,16.3531,VALID,214,VALID,0.608173
1999-12-15, 00:59:00,VALID,0,VALID,98.0204,VALID,-0.0339617,VALID,16.2786,VALID,217,VALID,0.731841
1999-12-15, 01:00:00,VALID,0,VALID,98.8024,VALID,-0.0849042,VALID,16.3333,VALID,206,VALID,0.89597
1999-12-15, 01:01:00,VALID,0,VALID,99.3072,VALID,-0.0509425,VALID,16.4434,VALID,208,VALID,0.867599
1999-12-15, 01:02:00,VALID,0,VALID,99.353,VALID,-0.0849042,VALID,16.4884,VALID,193,VALID,0.461993,,,
1999-12-15, 01:03:00,VALID,0,VALID,99.2742,VALID,-0.0679233,VALID,16.5082,VALID,193,VALID,0.379207,,,
1999-12-15, 01:04:00,VALID,0,VALID,98.9868,VALID,-0.0679233,VALID,16.4729,VALID,199,VALID,0.254223,,,
1999-12-15, 01:05:00,VALID,0,VALID,98.6447,VALID,-0.0509425,VALID,16.3792,VALID,181,VALID,0.615337,,,
1999-12-15, 01:06:00,VALID,0,VALID,99.0148,VALID,-0.0679233,VALID,16.4145,VALID,197,VALID,0.658512,,,
1999-12-15, 01:07:00,VALID,0,VALID,98.9067,VALID,-0.0849042,VALID,16.4309,VALID,180,VALID,0.4375,,,
1999-12-15, 01:08:01,VALID,0,VALID,98.5087,VALID,-0.0339617,VALID,16.3497,VALID,182,VALID,0.320513,,,
1999-12-15, 01:09:00,VALID,0,VALID,98.3192,VALID,-0.0339617,VALID,16.2823,VALID,182,VALID,0.374155,,,
1999-12-15, 01:10:00,VALID,0,VALID,97.2587,VALID,-0.0679233,VALID,16.1498,VALID,176,VALID,0.296464,,,
1999-12-15, 01:11:00,VALID,0,VALID,96.5148,VALID,-0.101885,VALID,16.0006,VALID,173,VALID,0.484786,,,
1999-12-15, 01:12:00,VALID,0,VALID,97.3502,VALID,-0.0509425,VALID,15.9881,VALID,172,VALID,0.303632,,,
1999-12-15, 01:13:00,VALID,0,VALID,97.8996,VALID,-0.0679233,VALID,15.975,VALID,172,VALID,0.231971,,,
1999-12-15, 01:14:00,VALID,0,VALID,98.2645,VALID,-0.0509425,VALID,15.9913,VALID,175,VALID,0.162584,,,
1999-12-15, 01:15:00,VALID,0,VALID,98.2861,VALID,-0.0679233,VALID,15.959,VALID,185,VALID,0,,,
1999-12-15, 01:16:00,VALID,0,VALID,99.0923,VALID,0.0509425,VALID,16.0382,VALID,185,VALID,0,,,
1999-12-15, 01:17:00,VALID,0,VALID,99.3721,VALID,0.0169808,VALID,16.1615,VALID,185,VALID,0,,,
1999-12-15, 01:18:00,VALID,0,VALID,99.3428,VALID,0.0339617,VALID,16.1837,VALID,185,VALID,0
1999-12-15, 01:19:00,VALID,0,VALID,99.2233,VALID,0.0339617,VALID,16.1548,VALID,187,VALID,0
1999-12-15, 01:20:00,VALID,0,VALID,99.3047,VALID,0.0509425,VALID,16.1516,VALID,194,VALID,0
1999-12-15, 01:21:00,VALID,0,VALID,99.3072,VALID,0.0509425,VALID,16.126,VALID,194,VALID,0
1999-12-15, 01:22:00,VALID,0,VALID,99.2589,VALID,0.0339617,VALID,16.1326,VALID,204,VALID,0
1999-12-15, 01:23:00,VALID,0,VALID,98.9601,VALID,0.0849042,VALID,16.0581,VALID,220,VALID,0
1999-12-15, 01:24:00,VALID,0,VALID,98.9919,VALID,0.0509425,VALID,16.0097,VALID,203,VALID,0
1999-12-15, 01:25:00,VALID,0,VALID,98.983,VALID,0.0169808,VALID,15.9903,VALID,192,VALID,0
1999-12-15, 01:26:00,VALID,0,VALID,99.4636,VALID,0.0169808,VALID,16.0517,VALID,213,VALID,0.630345
1999-12-15, 01:27:00,VALID,0,VALID,99.7675,VALID,0.0509425,VALID,16.2005,VALID,212,VALID,0.347973
1999-12-15, 01:28:00,VALID,0,VALID,99.7955,VALID,0.0169808,VALID,16.2744,VALID,225,VALID,0.454527
1999-12-15, 01:29:01,VALID,0,VALID,99.7485,VALID,0.0679233,VALID,16.3135,VALID,232,VALID,0.462838
1999-12-15, 01:30:00,VALID,0,VALID,99.5323,VALID,0.0339617,VALID,16.2776,VALID,232,VALID,0.295436
1999-12-15, 01:31:00,VALID,0,VALID,99.1941,VALID,0.0509425,VALID,16.174,VALID,243,VALID,0.428865
1999-12-15, 01:32:00,VALID,0,VALID,99.0478,VALID,0.0339617,VALID,16.1133,VALID,236,VALID,0.472762
1999-12-15, 01:33:00,VALID,0,VALID,98.9385,VALID,0.0679233,VALID,16.0452,VALID,234,VALID,0.125401
1999-12-15, 01:34:00,VALID,0,VALID,99.0275,VALID,0.0339617,VALID,16.0456,VALID,234,VALID,0
1999-12-15, 01:35:00,VALID,0,VALID,99.3937,VALID,0.0169808,VALID,16.0872,VALID,233,VALID,0
1999-12-15, 01:36:00,VALID,0,VALID,99.3149,VALID,0.0679233,VALID,16.1096,VALID,206,VALID,0
1999-12-15, 01:37:00,VALID,0,VALID,98.7871,VALID,0.0339617,VALID,15.9903,VALID,172,VALID,0
1999-12-15, 01:38:00,VALID,0,VALID,98.9092,VALID,0.0509425,VALID,15.935,VALID,171,VALID,0
1999-12-15, 01:39:01,VALID,0,VALID,99.3301,VALID,0.0849042,VALID,15.9927,VALID,177,VALID,0
1999-12-15, 01:40:00,VALID,0,VALID,99.5425,VALID,0.0679233,VALID,16.0739,VALID,177,VALID,0
1999-12-15, 01:41:00,VALID,0,VALID,99.4293,VALID,0.0509425,VALID,16.0866,VALID,177,VALID,0
1999-12-15, 01:42:00,VALID,0,VALID,99.2525,VALID,0.0849042,VALID,16.0254,VALID,187,VALID,0
1999-12-15, 01:43:00,VALID,0,VALID,99.2195,VALID,0.0679233,VALID,15.9734,VALID,210,VALID,0
1999-12-15, 01:44:00,VALID,0,VALID,99.2271,VALID,0.0509425,VALID,15.9382,VALID,230,VALID,0
1999-12-15, 01:45:00,VALID,0,VALID,99.5196,VALID,0.0849042,VALID,15.9707,VALID,228,VALID,0
1999-12-15, 01:46:00,VALID,0,VALID,99.6213,VALID,0.0169808,VALID,16.0224,VALID,219,VALID,0.318873
1999-12-15, 01:47:00,VALID,0,VALID,99.7459,VALID,0.0169808,VALID,16.0606,VALID,211,VALID,0.539696
1999-12-15, 01:48:00,VALID,0,VALID,99.8871,VALID,0.0679233,VALID,16.1579,VALID,202,VALID,0.515024
1999-12-15, 01:49:00,VALID,0,VALID,99.9542,VALID,0.0849042,VALID,16.2287,VALID,199,VALID,0.452914
1999-12-15, 01:50:00,VALID,0,VALID,99.8375,VALID,0.0509425,VALID,16.2513,VALID,199,VALID,0.557771
1999-12-15, 01:51:00,VALID,0,VALID,99.7485,VALID,0.0679233,VALID,16.2358,VALID,202,VALID,0.719161
1999-12-15, 01:52:00,VALID,0,VALID,99.7421,VALID,-0.0339617,VALID,16.2201,VALID,208,VALID,0.767948
1999-12-15, 01:53:00,VALID,0,VALID,99.765,VALID,-0.0339617,VALID,16.2564,VALID,228,VALID,0.552484
1999-12-15, 01:54:00,VALID,0,VALID,99.6378,VALID,-0.0509425,VALID,16.2399,VALID,233,VALID,0.456081
1999-12-15, 01:55:00,VALID,0,VALID,99.5259,VALID,-0.0169808,VALID,16.2106,VALID,219,VALID,0.528577
1999-12-15, 01:56:00,VALID,0,VALID,99.3428,VALID,-0.0169808,VALID,16.1783,VALID,207,VALID,0.481497
1999-12-15, 01:57:00,VALID,0,VALID,99.339,VALID,-0.0679233,VALID,16.1363,VALID,201,VALID,0.559755
1999-12-15, 01:58:00,VALID,0,VALID,99.4713,VALID,-0.0169808,VALID,16.1686,VALID,200,VALID,0.397035
1999-12-15, 01:59:00,VALID,0,VALID,99.5743,VALID,-0.0169808,VALID,16.1944,VALID,199,VALID,0.34924
1999-12-15, 02:00:00,VALID,0,VALID,99.5794,VALID,0,VALID,16.2263,VALID,186,VALID,0.485814
1999-12-15, 02:01:00,VALID,0,VALID,99.3568,VALID,-0.0169808,VALID,16.1752,VALID,185,VALID,0.188939
1999-12-15, 02:02:00,VALID,0,VALID,99.3428,VALID,-0.0169808,VALID,16.1462,VALID,185,VALID,0
1999-12-15, 02:03:00,VALID,0,VALID,99.3848,VALID,-0.0169808,VALID,16.1302,VALID,185,VALID,0
1999-12-15, 02:04:00,VALID,0,VALID,99.6646,VALID,-0.0169808,VALID,16.1617,VALID,185,VALID,0
1999-12-15, 02:05:00,VALID,0,VALID,99.9629,VALID,-0.0169808,VALID,16.2972,VALID,185,VALID,0
1999-12-15, 02:06:00,VALID,0,VALID,99.8891,VALID,0,VALID,16.3755,VALID,185,VALID,0
1999-12-15, 02:07:00,VALID,0,VALID,99.5018,VALID,-0.0339617,VALID,16.2562,VALID,185,VALID,0
1999-12-15, 02:08:00,VALID,0,VALID,99.5336,VALID,-0.0509425,VALID,16.2439,VALID,185,VALID,0
1999-12-15, 02:09:00,VALID,0,VALID,99.4725,VALID,-0.0339617,VALID,16.217,VALID,185,VALID,0
1999-12-15, 02:10:00,VALID,0,VALID,99.4001,VALID,-0.0339617,VALID,16.1686,VALID,185,VALID,0
1999-12-15, 02:11:00,VALID,0,VALID,99.5933,VALID,-0.0509425,VALID,16.175,VALID,188,VALID,0
1999-12-15, 02:12:00,VALID,0,VALID,99.8629,VALID,-0.0509425,VALID,16.2629,VALID,195,VALID,0
1999-12-15, 02:13:00,VALID,0,VALID,99.9903,VALID,-0.0339617,VALID,16.3665,VALID,226,VALID,0
1999-12-15, 02:14:00,VALID,0,VALID,100,VALID,-0.0339617,VALID,16.444,VALID,232,VALID,0
1999-12-15, 02:15:00,VALID,0,VALID,100,VALID,-0.0679233,VALID,16.4985,VALID,232,VALID,0
1999-12-15, 02:16:00,VALID,0,VALID,100,VALID,-0.0339617,VALID,16.5694,VALID,232,VALID,0
1999-12-15, 02:17:00,VALID,0,VALID,100,VALID,-0.0339617,VALID,16.6471,VALID,232,VALID,0
1999-12-15, 02:18:00,VALID,0,VALID,100,VALID,-0.0339617,VALID,16.7408,VALID,232,VALID,0
1999-12-15, 02:19:00,VALID,0,VALID,100,VALID,-0.0339617,VALID,16.8218,VALID,232,VALID,0
1999-12-15, 02:20:00,VALID,0,VALID,99.8881,VALID,-0.0509425,VALID,16.8634,VALID,232,VALID,0
1999-12-15, 02:21:00,VALID,0,VALID,99.704,VALID,-0.0679233,VALID,16.8823,VALID,232,VALID,0
1999-12-15, 02:22:00,VALID,0,VALID,99.6811,VALID,-0.0679233,VALID,16.9054,VALID,232,VALID,0
1999-12-15, 02:23:00,VALID,0,VALID,99.6073,VALID,-0.101885,VALID,16.9506,VALID,232,VALID,0
1999-12-15, 02:24:01,VALID,0,VALID,99.3823,VALID,-0.0509425,VALID,16.9539,VALID,232,VALID,0
1999-12-15, 02:25:00,VALID,0,VALID,99.3034,VALID,-0.0509425,VALID,16.9633,VALID,232,VALID,0
1999-12-15, 02:26:00,VALID,0,VALID,99.2322,VALID,-0.0849042,VALID,16.9997,VALID,232,VALID,0
1999-12-15, 02:27:00,VALID,0,VALID,99.1839,VALID,-0.0339617,VALID,17.0215,VALID,232,VALID,0
1999-12-15, 02:28:00,VALID,0,VALID,99.1699,VALID,0,VALID,17.0764,VALID,232,VALID,0
1999-12-15, 02:29:00,VALID,0,VALID,98.955,VALID,0,VALID,17.1475,VALID,232,VALID,0
1999-12-15, 02:30:00,VALID,0,VALID,98.6422,VALID,-0.0169808,VALID,17.222,VALID,232,VALID,0
1999-12-15, 02:31:00,VALID,0,VALID,98.2124,VALID,-0.0339617,VALID,17.2929,VALID,224,VALID,0
1999-12-15, 02:32:00,VALID,0,VALID,97.6885,VALID,-0.0679233,VALID,17.3254,VALID,208,VALID,0
1999-12-15, 02:33:00,VALID,0,VALID,97.1455,VALID,-0.0339617,VALID,17.3061,VALID,193,VALID,0
1999-12-15, 02:34:01,VALID,0,VALID,96.8785,VALID,-0.0339617,VALID,17.202,VALID,184,VALID,0
1999-12-15, 02:35:00,VALID,0,VALID,96.9064,VALID,-0.0339617,VALID,17.1245,VALID,162,VALID,0
1999-12-15, 02:36:00,VALID,0,VALID,96.1002,VALID,-0.0339617,VALID,16.9728,VALID,137,VALID,0
1999-12-15, 02:37:00,VALID,0,VALID,95.2546,VALID,-0.0169808,VALID,16.7977,VALID,136,VALID,0
1999-12-15, 02:38:00,VALID,0,VALID,95.0117,VALID,0,VALID,16.6657,VALID,192,VALID,0.197115
1999-12-15, 02:39:00,VALID,0,VALID,96.4245,VALID,0,VALID,16.5748,VALID,212,VALID,0.945946
1999-12-15, 02:40:00,VALID,0,VALID,96.7424,VALID,0,VALID,16.4882,VALID,194,VALID,0.840255
1999-12-15, 02:41:00,VALID,0,VALID,97.0145,VALID,-0.0169808,VALID,16.3784,VALID,219,VALID,0.525082
1999-12-15, 02:42:00,VALID,0,VALID,97.5155,VALID,-0.0169808,VALID,16.317,VALID,237,VALID,0.578336
1999-12-15, 02:43:00,VALID,0,VALID,98.0102,VALID,-0.0339617,VALID,16.2974,VALID,229,VALID,1.02304
1999-12-15, 02:44:00,VALID,0,VALID,98.365,VALID,0,VALID,16.2778,VALID,221,VALID,1.12817
1999-12-15, 02:45:00,VALID,0,VALID,98.6155,VALID,0,VALID,16.275,VALID,215,VALID,0.675576
1999-12-15, 02:46:00,VALID,0,VALID,98.7477,VALID,-0.0169808,VALID,16.2487,VALID,222,VALID,0.408306
1999-12-15, 02:47:00,VALID,0,VALID,98.941,VALID,-0.0339617,VALID,16.2487,VALID,217,VALID,0.520481
1999-12-15, 02:48:00,VALID,0,VALID,98.9372,VALID,-0.0169808,VALID,16.2158,VALID,196,VALID,0.546074
1999-12-15, 02:49:00,VALID,0,VALID,99.0211,VALID,-0.0169808,VALID,16.2007,VALID,190,VALID,0.234164
1999-12-15, 02:50:00,VALID,0,VALID,99.058,VALID,-0.0339617,VALID,16.1714,VALID,189,VALID,0
1999-12-15, 02:51:00,VALID,0,VALID,99.0402,VALID,-0.0509425,VALID,16.1365,VALID,187,VALID,0
1999-12-15, 02:52:00,VALID,0,VALID,98.8355,VALID,-0.0509425,VALID,16.0428,VALID,186,VALID,0
1999-12-15, 02:53:00,VALID,0,VALID,98.8011,VALID,0,VALID,15.9847,VALID,171,VALID,0
1999-12-15, 02:54:00,VALID,0,VALID,99.0186,VALID,0,VALID,15.9548,VALID,165,VALID,0
1999-12-15, 02:55:00,VALID,0,VALID,99.4331,VALID,-0.0339617,VALID,16.0428,VALID,172,VALID,0
1999-12-15, 02:56:00,VALID,0,VALID,99.3644,VALID,-0.0509425,VALID,16.0493,VALID,193,VALID,0
1999-12-15, 02:57:01,VALID,0,VALID,99.4598,VALID,-0.0169808,VALID,16.0264,VALID,199,VALID,0
1999-12-15, 02:58:00,VALID,0,VALID,99.2169,VALID,-0.0509425,VALID,15.9195,VALID,196,VALID,0
1999-12-15, 02:59:00,VALID,0,VALID,99.058,VALID,-0.0339617,VALID,15.8978,VALID,168,VALID,0
1999-12-15, 03:00:00,VALID,0,VALID,99.3161,VALID,-0.0509425,VALID,15.8813,VALID,168,VALID,0
1999-12-15, 03:01:00,VALID,0,VALID,99.7663,VALID,-0.0679233,VALID,16.04,VALID,169,VALID,0
1999-12-15, 03:02:00,VALID,0,VALID,99.7993,VALID,-0.0509425,VALID,16.1038,VALID,167,VALID,0
1999-12-15, 03:03:00,VALID,0,VALID,99.5107,VALID,0,VALID,16.0497,VALID,163,VALID,0
1999-12-15, 03:04:00,VALID,0,VALID,99.5844,VALID,-0.0169808,VALID,16.04,VALID,162,VALID,0
1999-12-15, 03:05:00,VALID,0,VALID,99.367,VALID,0,VALID,15.9649,VALID,155,VALID,0
1999-12-15, 03:06:00,VALID,0,VALID,99.381,VALID,-0.0509425,VALID,15.9394,VALID,148,VALID,0.760485
1999-12-15, 03:07:00,VALID,0,VALID,99.7192,VALID,-0.0509425,VALID,16.0396,VALID,146,VALID,0.922931
1999-12-15, 03:08:00,VALID,0,VALID,99.8006,VALID,-0.0509425,VALID,16.1076,VALID,147,VALID,0.614984
1999-12-15, 03:09:00,VALID,0,VALID,99.4115,VALID,-0.0339617,VALID,15.9877,VALID,149,VALID,0.264358
1999-12-15, 03:10:00,VALID,0,VALID,99.2347,VALID,-0.0509425,VALID,15.9229,VALID,149,VALID,0.0115132
1999-12-15, 03:11:00,VALID,0,VALID,99.3988,VALID,0,VALID,15.9332,VALID,177,VALID,0
1999-12-15, 03:12:00,VALID,0,VALID,99.3441,VALID,-0.0849042,VALID,15.9435,VALID,205,VALID,0
1999-12-15, 03:13:00,VALID,0,VALID,99.0427,VALID,-0.0339617,VALID,15.8427,VALID,219,VALID,0
1999-12-15, 03:14:00,VALID,0,VALID,99.2258,VALID,-0.0169808,VALID,15.8268,VALID,215,VALID,0
1999-12-15, 03:15:00,VALID,0,VALID,99.5883,VALID,-0.0169808,VALID,15.8874,VALID,203,VALID,0
1999-12-15, 03:16:00,VALID,0,VALID,99.6328,VALID,-0.0339617,VALID,15.9526,VALID,196,VALID,0.327097
1999-12-15, 03:17:00,VALID,0,VALID,99.4687,VALID,-0.0509425,VALID,15.9168,VALID,194,VALID,0.201436
1999-12-15, 03:18:00,VALID,0,VALID,99.4611,VALID,-0.0679233,VALID,15.8613,VALID,194,VALID,0
1999-12-15, 03:19:01,VALID,0,VALID,99.5794,VALID,-0.0679233,VALID,15.8615,VALID,194,VALID,0
1999-12-15, 03:20:00,VALID,0,VALID,99.2754,VALID,-0.0339617,VALID,15.7717,VALID,175,VALID,0
1999-12-15, 03:21:00,VALID,0,VALID,98.6854,VALID,-0.0509425,VALID,15.5648,VALID,153,VALID,0
1999-12-15, 03:22:00,VALID,0,VALID,98.515,VALID,0.0509425,VALID,15.4998,VALID,145,VALID,0
1999-12-15, 03:23:00,VALID,0,VALID,99.2576,VALID,0.0339617,VALID,15.6068,VALID,166,VALID,0.329527
1999-12-15, 03:24:00,VALID,0,VALID,99.0084,VALID,0,VALID,15.5967,VALID,197,VALID,0.526182
1999-12-15, 03:25:00,VALID,0,VALID,98.9029,VALID,0.0169808,VALID,15.5226,VALID,213,VALID,0.531867
1999-12-15, 03:26:00,VALID,0,VALID,99.1279,VALID,0.0509425,VALID,15.4967,VALID,214,VALID,0.624589,,,
1999-12-15, 03:27:00,VALID,0,VALID,99.442,VALID,0.0509425,VALID,15.548,VALID,211,VALID,0.548142,,,
1999-12-15, 03:28:00,VALID,0,VALID,99.3594,VALID,0.0509425,VALID,15.5408,VALID,192,VALID,0.356971,,,
1999-12-15, 03:29:01,VALID,0,VALID,99.1076,VALID,0.0509425,VALID,15.4128,VALID,180,VALID,0.528716,,,
1999-12-15, 03:30:01,VALID,0,VALID,99.3352,VALID,0.0339617,VALID,15.4802,VALID,181,VALID,0.650699,,,
1999-12-15, 03:31:00,VALID,0,VALID,99.1279,VALID,0,VALID,15.4382,VALID,195,VALID,0.753289,,,
1999-12-15, 03:32:00,VALID,0,VALID,99.2017,VALID,0.0169808,VALID,15.3894,VALID,198,VALID,0.854096,,,
1999-12-15, 03:33:00,VALID,0,VALID,99.7116,VALID,0.0169808,VALID,15.4768,VALID,202,VALID,0.9377,,,
1999-12-15, 03:34:00,VALID,0,VALID,99.9875,VALID,0.0339617,VALID,15.6354,VALID,221,VALID,0.835515,,,
1999-12-15, 03:35:00,VALID,0,VALID,100,VALID,0.0339617,VALID,15.7188,VALID,212,VALID,0.79852,,,
1999-12-15, 03:36:00,VALID,0,VALID,100,VALID,-0.0169808,VALID,15.7868,VALID,210,VALID,0.978207,,,
1999-12-15, 03:37:00,VALID,0,VALID,100,VALID,0,VALID,15.8849,VALID,200,VALID,0.582348,,,
1999-12-15, 03:38:00,VALID,0,VALID,99.999,VALID,-0.0169808,VALID,15.8847,VALID,202,VALID,0.367188,,,
1999-12-15, 03:39:00,VALID,0,VALID,99.9977,VALID,0,VALID,15.9235,VALID,205,VALID,0.433699,,,
1999-12-15, 03:40:00,VALID,0,VALID,99.9278,VALID,-0.0509425,VALID,15.9142,VALID,207,VALID,0.506168,,,
1999-12-15, 03:41:01,VALID,0,VALID,99.6887,VALID,-0.0339617,VALID,15.8464,VALID,207,VALID,0.548931,,,
1999-12-15, 03:42:00,VALID,0,VALID,99.7548,VALID,-0.0169808,VALID,15.8078,VALID,199,VALID,0.721284
1999-12-15, 03:43:00,VALID,0,VALID,99.7459,VALID,-0.0679233,VALID,15.7846,VALID,190,VALID,0.849359
1999-12-15, 03:44:00,VALID,0,VALID,99.9423,VALID,-0.0509425,VALID,15.8595,VALID,192,VALID,1.12078
1999-12-15, 03:45:00,VALID,0,VALID,100,VALID,-0.0339617,VALID,16.0242,VALID,203,VALID,0.934622
1999-12-15, 03:46:00,VALID,0,VALID,100,VALID,-0.0679233,VALID,16.0723,VALID,216,VALID,0.718133
1999-12-15, 03:47:00,VALID,0,VALID,99.8675,VALID,0,VALID,16.0628,VALID,226,VALID,0.806799
1999-12-15, 03:48:00,VALID,0,VALID,99.765,VALID,0,VALID,15.998,VALID,222,VALID,1.00761
1999-12-15, 03:49:00,VALID,0,VALID,99.8629,VALID,-0.0339617,VALID,16.0238,VALID,208,VALID,1.00084
1999-12-15, 03:50:00,VALID,0,VALID,99.9189,VALID,-0.0169808,VALID,16.0949,VALID,198,VALID,1.0993
1999-12-15, 03:51:00,VALID,0,VALID,99.8108,VALID,0,VALID,16.1143,VALID,198,VALID,1.12541
1999-12-15, 03:52:01,VALID,0,VALID,99.5755,VALID,-0.0339617,VALID,16.1173,VALID,200,VALID,0.498944
1999-12-15, 03:53:00,VALID,0,VALID,99.4408,VALID,0,VALID,16.1209,VALID,200,VALID,0.0516827
1999-12-15, 03:54:00,VALID,0,VALID,99.367,VALID,0,VALID,16.1036,VALID,200,VALID,0
1999-12-15, 03:55:00,VALID,0,VALID,99.3734,VALID,0,VALID,16.1264,VALID,207,VALID,0
1999-12-15, 03:56:00,VALID,0,VALID,99.1063,VALID,-0.0169808,VALID,16.1363,VALID,223,VALID,0.438734
1999-12-15, 03:57:00,VALID,0,VALID,98.323,VALID,-0.0169808,VALID,16.0107,VALID,216,VALID,1.04497
1999-12-15, 03:58:00,VALID,0,VALID,98.7121,VALID,-0.0339617,VALID,16.0204,VALID,215,VALID,1.17548
1999-12-15, 03:59:00,VALID,0,VALID,99.2487,VALID,-0.0169808,VALID,16.1076,VALID,214,VALID,1.08678
1999-12-15, 04:00:00,VALID,0,VALID,99.3759,VALID,-0.0169808,VALID,16.169,VALID,209,VALID,0.607113
1999-12-15, 04:01:00,VALID,0,VALID,99.3619,VALID,0,VALID,16.1948,VALID,208,VALID,0.443257
1999-12-15, 04:02:00,VALID,0,VALID,99.2589,VALID,-0.0169808,VALID,16.1845,VALID,216,VALID,0.343961
1999-12-15, 04:03:01,VALID,0,VALID,99.0783,VALID,-0.0169808,VALID,16.1688,VALID,243,VALID,0.716947
1999-12-15, 04:04:00,VALID,0,VALID,98.955,VALID,-0.0169808,VALID,16.1494,VALID,228,VALID,1.05342
1999-12-15, 04:05:00,VALID,0,VALID,98.8825,VALID,0,VALID,16.1423,VALID,226,VALID,1.0037
1999-12-15, 04:06:00,VALID,0,VALID,99.0593,VALID,0.0169808,VALID,16.1658,VALID,225,VALID,1.05428
1999-12-15, 04:07:00,VALID,0,VALID,99.2347,VALID,0,VALID,16.2041,VALID,223,VALID,0.773438
1999-12-15, 04:08:00,VALID,0,VALID,99.1775,VALID,0,VALID,16.2067,VALID,215,VALID,0.676482
1999-12-15, 04:09:00,VALID,0,VALID,98.9601,VALID,0,VALID,16.1754,VALID,208,VALID,0.459248
1999-12-15, 04:10:00,VALID,0,VALID,98.6676,VALID,-0.0339617,VALID,16.1001,VALID,216,VALID,0.531661